Time,TemperatureF,DewpointF,PressureIn,WindDirection,WindDirectionDegrees,WindSpeedMPH,WindSpeedGustMPH,Humidity,HourlyPrecipIn,Conditions,Clouds,dailyrainin,SolarRadiationWatts/m^2,SoftwareType,DateUTC
2013-01-10 00:07:00,72.3,68.9,30.28,ENE,78,3.0,3.0,89,0.00,,,0.00,0,Wunderground v.1.15,2013-01-10 05:07:00,
2013-01-10 00:12:00,72.3,68.9,30.29,ENE,78,3.0,6.0,89,0.00,,,0.00,0,Wunderground v.1.15,2013-01-10 05:12:00,
2013-01-10 00:17:00,72.3,69.2,30.28,ENE,78,4.0,6.0,90,0.00,,,0.00,0,Wunderground v.1.15,2013-01-10 05:17:00,
2013-01-10 00:22:00,72.1,69.0,30.28,East,82,4.0,4.0,90,0.00,,,0.00,0,Wunderground v.1.15,2013-01-10 05:22:00,
2013-01-10 00:32:00,72.1,69.0,30.29,East,86,4.0,4.0,90,0.00,,,0.00,0,Wunderground v.1.15,2013-01-10 05:32:00,
2013-01-10 00:37:00,72.0,68.9,30.28,East,92,4.0,4.0,90,0.00,,,0.00,0,Wunderground v.1.15,2013-01-10 05:37:00,
2013-01-10 00:42:00,72.0,68.9,30.28,East,86,3.0,3.0,90,0.00,,,0.00,0,Wunderground v.1.15,2013-01-10 05:42:00,
2013-01-10 00:47:00,71.8,68.7,30.28,ENE,58,4.0,5.0,90,0.00,,,0.00,0,Wunderground v.1.15,2013-01-10 05:47:00,
2013-01-10 00:57:00,71.6,68.8,30.28,East,79,3.0,3.0,91,0.00,,,0.00,0,Wunderground v.1.15,2013-01-10 05:57:00,
2013-01-10 01:02:00,71.6,68.8,30.28,ENE,59,3.0,5.0,91,0.00,,,0.00,0,Wunderground v.1.15,2013-01-10 06:02:00,
2013-01-10 01:12:00,71.5,68.7,30.28,ENE,78,4.0,6.0,91,0.00,,,0.00,0,Wunderground v.1.15,2013-01-10 06:12:00,
2013-01-10 01:17:00,71.5,68.7,30.28,NE,54,3.0,6.0,91,0.00,,,0.00,0,Wunderground v.1.15,2013-01-10 06:17:00,
2013-01-10 01:22:00,71.3,68.9,30.28,ENE,66,4.0,6.0,92,0.00,,,0.00,0,Wunderground v.1.15,2013-01-10 06:22:00,
2013-01-10 01:27:00,71.3,68.9,30.28,East,79,5.0,6.0,92,0.00,,,0.00,0,Wunderground v.1.15,2013-01-10 06:27:00,
2013-01-10 01:37:00,71.3,68.9,30.28,ENE,69,5.0,5.0,92,0.00,,,0.00,0,Wunderground v.1.15,2013-01-10 06:37:00,
2013-01-10 01:42:00,71.1,68.7,30.28,East,99,5.0,5.0,92,0.00,,,0.00,0,Wunderground v.1.15,2013-01-10 06:42:00,
2013-01-10 01:47:00,71.1,69.0,30.28,ENE,72,5.0,5.0,93,0.00,,,0.00,0,Wunderground v.1.15,2013-01-10 06:47:00,
2013-01-10 01:57:00,71.1,69.0,30.27,ESE,109,6.0,6.0,93,0.00,,,0.00,0,Wunderground v.1.15,2013-01-10 06:57:00,
2013-01-10 02:02:00,71.1,69.0,30.27,East,96,5.0,8.0,93,0.00,,,0.00,0,Wunderground v.1.15,2013-01-10 07:02:00,
2013-01-10 02:12:00,70.9,68.8,30.27,East,80,6.0,6.0,93,0.00,,,0.00,0,Wunderground v.1.15,2013-01-10 07:12:00,
2013-01-10 02:17:00,70.9,68.8,30.27,East,82,6.0,6.0,93,0.00,,,0.00,0,Wunderground v.1.15,2013-01-10 07:17:00,
2013-01-10 02:27:00,70.8,69.0,30.27,East,86,6.0,6.0,94,0.00,,,0.00,0,Wunderground v.1.15,2013-01-10 07:27:00,
2013-01-10 02:37:00,70.8,69.0,30.27,ESE,102,6.0,6.0,94,0.00,,,0.00,0,Wunderground v.1.15,2013-01-10 07:37:00,
2013-01-10 02:47:00,70.8,69.0,30.27,East,95,5.0,10.0,94,0.00,,,0.00,0,Wunderground v.1.15,2013-01-10 07:47:00,
2013-01-10 02:52:00,70.8,69.0,30.27,East,86,5.0,5.0,94,0.00,,,0.00,0,Wunderground v.1.15,2013-01-10 07:52:00,
2013-01-10 03:02:00,70.8,69.0,30.27,East,80,5.0,7.0,94,0.00,,,0.00,0,Wunderground v.1.15,2013-01-10 08:02:00,
2013-01-10 03:12:00,70.8,69.0,30.26,ENE,76,6.0,6.0,94,0.00,,,0.00,0,Wunderground v.1.15,2013-01-10 08:12:00,
2013-01-10 03:17:00,70.8,69.0,30.26,East,97,5.0,6.0,94,0.00,,,0.00,0,Wunderground v.1.15,2013-01-10 08:17:00,
2013-01-10 03:27:00,70.6,68.8,30.26,ESE,102,5.0,6.0,94,0.00,,,0.00,0,Wunderground v.1.15,2013-01-10 08:27:00,
2013-01-10 03:37:00,70.6,68.8,30.26,East,90,5.0,10.0,94,0.00,,,0.00,0,Wunderground v.1.15,2013-01-10 08:37:00,
2013-01-10 03:42:00,70.6,68.8,30.26,ENE,76,5.0,5.0,94,0.00,,,0.00,0,Wunderground v.1.15,2013-01-10 08:42:00,
2013-01-10 03:47:00,70.6,68.8,30.26,ENE,65,5.0,5.0,94,0.00,,,0.00,0,Wunderground v.1.15,2013-01-10 08:47:00,
2013-01-10 03:52:00,70.6,68.8,30.26,East,99,5.0,5.0,94,0.00,,,0.00,0,Wunderground v.1.15,2013-01-10 08:52:00,
2013-01-10 03:57:00,70.6,68.8,30.26,East,99,6.0,6.0,94,0.00,,,0.00,0,Wunderground v.1.15,2013-01-10 08:57:00,
2013-01-10 04:07:00,70.6,68.8,30.25,ENE,68,4.0,5.0,94,0.00,,,0.00,0,Wunderground v.1.15,2013-01-10 09:07:00,
2013-01-10 04:17:00,70.6,68.8,30.25,ENE,73,6.0,6.0,94,0.00,,,0.00,0,Wunderground v.1.15,2013-01-10 09:17:00,
2013-01-10 04:22:00,70.6,68.8,30.25,East,100,5.0,5.0,94,0.00,,,0.00,0,Wunderground v.1.15,2013-01-10 09:22:00,
2013-01-10 04:32:00,70.6,68.8,30.25,East,100,4.0,5.0,94,0.00,,,0.00,0,Wunderground v.1.15,2013-01-10 09:32:00,
2013-01-10 04:37:00,70.6,68.8,30.25,East,90,5.0,5.0,94,0.00,,,0.00,0,Wunderground v.1.15,2013-01-10 09:37:00,
2013-01-10 04:42:00,70.6,68.8,30.25,ENE,64,4.0,5.0,94,0.00,,,0.00,0,Wunderground v.1.15,2013-01-10 09:42:00,
2013-01-10 04:52:00,70.4,68.6,30.26,East,82,5.0,5.0,94,0.00,,,0.00,0,Wunderground v.1.15,2013-01-10 09:52:00,
2013-01-10 05:02:00,70.4,68.9,30.26,East,93,3.0,3.0,95,0.00,,,0.00,0,Wunderground v.1.15,2013-01-10 10:02:00,
2013-01-10 05:07:00,70.4,68.6,30.26,East,90,3.0,3.0,94,0.00,,,0.00,0,Wunderground v.1.15,2013-01-10 10:07:00,
2013-01-10 05:12:00,70.4,68.6,30.26,East,79,2.0,2.0,94,0.00,,,0.00,0,Wunderground v.1.15,2013-01-10 10:12:00,
2013-01-10 05:22:00,70.3,68.8,30.26,ENE,76,2.0,3.0,95,0.00,,,0.00,0,Wunderground v.1.15,2013-01-10 10:22:00,
2013-01-10 05:27:00,70.3,68.8,30.26,East,86,2.0,3.0,95,0.00,,,0.00,0,Wunderground v.1.15,2013-01-10 10:27:00,
2013-01-10 05:32:00,70.3,68.8,30.27,East,88,2.0,2.0,95,0.00,,,0.00,0,Wunderground v.1.15,2013-01-10 10:32:00,
2013-01-10 05:42:00,70.1,68.6,30.27,East,85,1.0,1.0,95,0.00,,,0.00,0,Wunderground v.1.15,2013-01-10 10:42:00,
2013-01-10 05:47:00,70.1,68.6,30.27,East,90,1.0,1.0,95,0.00,,,0.00,0,Wunderground v.1.15,2013-01-10 10:47:00,
2013-01-10 05:52:00,69.9,68.4,30.27,East,90,1.0,1.0,95,0.00,,,0.00,0,Wunderground v.1.15,2013-01-10 10:52:00,
2013-01-10 06:02:00,69.9,68.4,30.26,ENE,75,2.0,2.0,95,0.00,,,0.00,0,Wunderground v.1.15,2013-01-10 11:02:00,
2013-01-10 06:07:00,69.8,68.3,30.27,ENE,71,2.0,2.0,95,0.00,,,0.00,0,Wunderground v.1.15,2013-01-10 11:07:00,
2013-01-10 06:17:00,69.8,68.3,30.26,ENE,66,2.0,2.0,95,0.00,,,0.00,0,Wunderground v.1.15,2013-01-10 11:17:00,
2013-01-10 06:22:00,69.6,68.1,30.26,ENE,64,2.0,2.0,95,0.00,,,0.00,0,Wunderground v.1.15,2013-01-10 11:22:00,
2013-01-10 06:32:00,69.4,67.9,30.27,ENE,68,2.0,2.0,95,0.00,,,0.00,0,Wunderground v.1.15,2013-01-10 11:32:00,
2013-01-10 06:37:00,69.4,67.9,30.27,ENE,66,2.0,2.0,95,0.00,,,0.00,0,Wunderground v.1.15,2013-01-10 11:37:00,
2013-01-10 06:42:00,69.4,67.9,30.27,ENE,59,3.0,3.0,95,0.00,,,0.00,0,Wunderground v.1.15,2013-01-10 11:42:00,
2013-01-10 06:52:00,69.4,67.9,30.27,NE,42,3.0,3.0,95,0.00,,,0.00,0,Wunderground v.1.15,2013-01-10 11:52:00,
2013-01-10 06:57:00,69.3,67.8,30.28,NE,47,3.0,3.0,95,0.00,,,0.00,0,Wunderground v.1.15,2013-01-10 11:57:00,
2013-01-10 07:02:00,69.3,67.8,30.28,ENE,62,2.0,2.0,95,0.00,,,0.00,0,Wunderground v.1.15,2013-01-10 12:02:00,
2013-01-10 07:12:00,69.3,67.8,30.28,NE,44,2.0,2.0,95,0.00,,,0.00,0,Wunderground v.1.15,2013-01-10 12:12:00,
2013-01-10 07:17:00,69.1,67.6,30.28,ENE,64,2.0,4.0,95,0.00,,,0.00,0,Wunderground v.1.15,2013-01-10 12:17:00,
2013-01-10 07:27:00,69.1,67.6,30.28,NE,54,3.0,4.0,95,0.00,,,0.00,0,Wunderground v.1.15,2013-01-10 12:27:00,
2013-01-10 07:37:00,69.1,67.6,30.28,NE,56,3.0,3.0,95,0.00,,,0.00,12,Wunderground v.1.15,2013-01-10 12:37:00,
2013-01-10 07:47:00,69.1,67.9,30.28,ENE,64,3.0,3.0,96,0.00,,,0.00,18,Wunderground v.1.15,2013-01-10 12:47:00,
2013-01-10 07:57:00,69.1,67.9,30.28,ENE,62,3.0,3.0,96,0.00,,,0.00,33,Wunderground v.1.15,2013-01-10 12:57:00,
2013-01-10 08:07:00,69.3,68.1,30.29,NE,54,3.0,4.0,96,0.00,,,0.00,35,Wunderground v.1.15,2013-01-10 13:07:00,
2013-01-10 08:12:00,69.4,68.2,30.28,East,92,4.0,4.0,96,0.00,,,0.00,40,Wunderground v.1.15,2013-01-10 13:12:00,
2013-01-10 08:17:00,69.6,68.4,30.29,ENE,65,4.0,4.0,96,0.00,,,0.00,65,Wunderground v.1.15,2013-01-10 13:17:00,
2013-01-10 08:27:00,69.8,68.6,30.29,ENE,64,5.0,6.0,96,0.00,,,0.00,116,Wunderground v.1.15,2013-01-10 13:27:00,
2013-01-10 08:37:00,70.3,68.8,30.28,ESE,103,4.0,6.0,95,0.00,,,0.00,169,Wunderground v.1.15,2013-01-10 13:37:00,
2013-01-10 08:42:00,70.4,68.9,30.29,ESE,117,4.0,4.0,95,0.00,,,0.00,107,Wunderground v.1.15,2013-01-10 13:42:00,
2013-01-10 08:47:00,70.8,69.3,30.29,ENE,65,4.0,5.0,95,0.00,,,0.00,216,Wunderground v.1.15,2013-01-10 13:47:00,
2013-01-10 08:52:00,70.9,69.1,30.29,ESE,120,5.0,5.0,94,0.00,,,0.00,246,Wunderground v.1.15,2013-01-10 13:52:00,
2013-01-10 08:57:00,71.3,69.5,30.29,East,82,6.0,7.0,94,0.00,,,0.00,253,Wunderground v.1.15,2013-01-10 13:57:00,
2013-01-10 09:02:00,71.6,69.5,30.29,East,88,5.0,7.0,93,0.00,,,0.00,104,Wunderground v.1.15,2013-01-10 14:02:00,
2013-01-10 09:07:00,71.8,69.3,30.29,ESE,120,5.0,7.0,92,0.00,,,0.00,303,Wunderground v.1.15,2013-01-10 14:07:00,
2013-01-10 09:17:00,72.8,69.7,30.29,East,95,5.0,6.0,90,0.00,,,0.00,347,Wunderground v.1.15,2013-01-10 14:17:00,
2013-01-10 09:22:00,73.0,69.6,30.29,ESE,107,6.0,8.0,89,0.00,,,0.00,354,Wunderground v.1.15,2013-01-10 14:22:00,
2013-01-10 09:27:00,73.3,69.5,30.29,SE,131,7.0,8.0,88,0.00,,,0.00,357,Wunderground v.1.15,2013-01-10 14:27:00,
2013-01-10 09:37:00,74.0,69.2,30.28,SE,136,8.0,8.0,85,0.00,,,0.00,382,Wunderground v.1.15,2013-01-10 14:37:00,
2013-01-10 09:42:00,74.2,69.1,30.28,East,85,8.0,8.0,84,0.00,,,0.00,394,Wunderground v.1.15,2013-01-10 14:42:00,
2013-01-10 09:47:00,74.4,69.2,30.28,East,93,9.0,9.0,84,0.00,,,0.00,415,Wunderground v.1.15,2013-01-10 14:47:00,
2013-01-10 09:52:00,74.6,69.4,30.28,East,95,9.0,9.0,84,0.00,,,0.00,422,Wunderground v.1.15,2013-01-10 14:52:00,
2013-01-10 09:57:00,74.7,69.2,30.28,ESE,109,8.0,12.0,83,0.00,,,0.00,454,Wunderground v.1.15,2013-01-10 14:57:00,
2013-01-10 10:02:00,74.7,69.2,30.27,ESE,109,10.0,10.0,83,0.00,,,0.00,449,Wunderground v.1.15,2013-01-10 15:02:00,
2013-01-10 10:07:00,75.4,69.9,30.27,ESE,113,9.0,10.0,83,0.00,,,0.00,463,Wunderground v.1.15,2013-01-10 15:07:00,
2013-01-10 10:17:00,75.4,69.2,30.26,ESE,112,9.0,14.0,81,0.00,,,0.00,486,Wunderground v.1.15,2013-01-10 15:17:00,
2013-01-10 10:22:00,75.6,69.4,30.26,East,79,9.0,12.0,81,0.00,,,0.00,501,Wunderground v.1.15,2013-01-10 15:22:00,
2013-01-10 10:27:00,76.0,69.4,30.26,East,100,9.0,13.0,80,0.00,,,0.00,517,Wunderground v.1.15,2013-01-10 15:27:00,
2013-01-10 10:37:00,76.7,69.3,30.25,ESE,123,10.0,10.0,78,0.00,,,0.00,549,Wunderground v.1.15,2013-01-10 15:37:00,
2013-01-10 10:42:00,77.2,69.0,30.25,SE,124,9.0,9.0,76,0.00,,,0.00,558,Wunderground v.1.15,2013-01-10 15:42:00,
2013-01-10 10:52:00,77.2,69.0,30.25,SSE,150,10.0,10.0,76,0.00,,,0.00,582,Wunderground v.1.15,2013-01-10 15:52:00,
2013-01-10 10:57:00,78.1,69.1,30.25,East,99,9.0,13.0,74,0.00,,,0.00,598,Wunderground v.1.15,2013-01-10 15:57:00,
2013-01-10 11:07:00,78.3,68.5,30.24,East,89,10.0,12.0,72,0.00,,,0.00,602,Wunderground v.1.15,2013-01-10 16:07:00,
2013-01-10 11:12:00,78.3,67.7,30.24,ESE,120,10.0,11.0,70,0.00,,,0.00,614,Wunderground v.1.15,2013-01-10 16:12:00,
2013-01-10 11:22:00,79.2,66.9,30.24,East,99,9.0,12.0,66,0.00,,,0.00,623,Wunderground v.1.15,2013-01-10 16:22:00,
2013-01-10 11:27:00,78.8,66.5,30.24,East,100,10.0,12.0,66,0.00,,,0.00,616,Wunderground v.1.15,2013-01-10 16:27:00,
2013-01-10 11:32:00,79.6,67.2,30.23,NE,52,10.0,11.0,66,0.00,,,0.00,618,Wunderground v.1.15,2013-01-10 16:32:00,
2013-01-10 11:37:00,79.6,66.3,30.23,SE,126,11.0,11.0,64,0.00,,,0.00,648,Wunderground v.1.15,2013-01-10 16:37:00,
2013-01-10 11:42:00,80.1,65.9,30.23,East,95,10.0,10.0,62,0.00,,,0.00,635,Wunderground v.1.15,2013-01-10 16:42:00,
2013-01-10 11:52:00,79.8,65.6,30.22,ESE,106,9.0,9.0,62,0.00,,,0.00,653,Wunderground v.1.15,2013-01-10 16:52:00,
2013-01-10 11:57:00,80.1,65.4,30.22,East,92,9.0,12.0,61,0.00,,,0.00,662,Wunderground v.1.15,2013-01-10 16:57:00,
2013-01-10 12:02:00,79.9,65.2,30.22,ESE,107,11.0,11.0,61,0.00,,,0.00,669,Wunderground v.1.15,2013-01-10 17:02:00,
2013-01-10 12:12:00,80.5,65.3,30.22,ESE,112,11.0,11.0,60,0.00,,,0.00,667,Wunderground v.1.15,2013-01-10 17:12:00,
2013-01-10 12:17:00,80.9,64.7,30.22,ESE,112,11.0,11.0,58,0.00,,,0.00,679,Wunderground v.1.15,2013-01-10 17:17:00,
2013-01-10 12:22:00,81.1,65.4,30.22,East,96,10.0,13.0,59,0.00,,,0.00,635,Wunderground v.1.15,2013-01-10 17:22:00,
2013-01-10 12:32:00,80.7,65.0,30.21,East,96,11.0,13.0,59,0.00,,,0.00,658,Wunderground v.1.15,2013-01-10 17:32:00,
2013-01-10 12:37:00,81.1,64.4,30.21,East,97,10.0,15.0,57,0.00,,,0.00,655,Wunderground v.1.15,2013-01-10 17:37:00,
2013-01-10 12:47:00,82.2,65.4,30.21,East,92,9.0,10.0,57,0.00,,,0.00,656,Wunderground v.1.15,2013-01-10 17:47:00,
2013-01-10 12:52:00,81.6,64.4,30.21,East,79,9.0,9.0,56,0.00,,,0.00,642,Wunderground v.1.15,2013-01-10 17:52:00,
2013-01-10 13:02:00,81.4,64.7,30.21,East,93,10.0,10.0,57,0.00,,,0.00,554,Wunderground v.1.15,2013-01-10 18:02:00,
2013-01-10 13:12:00,81.8,64.6,30.21,ESE,104,10.0,12.0,56,0.00,,,0.00,640,Wunderground v.1.15,2013-01-10 18:12:00,
2013-01-10 13:17:00,81.2,64.5,30.21,East,97,10.0,12.0,57,0.00,,,0.00,591,Wunderground v.1.15,2013-01-10 18:17:00,
2013-01-10 13:27:00,81.6,64.4,30.21,ESE,112,9.0,12.0,56,0.00,,,0.00,611,Wunderground v.1.15,2013-01-10 18:27:00,
2013-01-10 13:37:00,82.0,64.2,30.21,SSE,158,8.0,11.0,55,0.00,,,0.00,619,Wunderground v.1.15,2013-01-10 18:37:00,
2013-01-10 13:42:00,82.2,63.9,30.21,East,88,10.0,10.0,54,0.00,,,0.00,633,Wunderground v.1.15,2013-01-10 18:42:00,
2013-01-10 13:47:00,83.2,63.7,30.21,East,90,9.0,10.0,52,0.00,,,0.00,586,Wunderground v.1.15,2013-01-10 18:47:00,
2013-01-10 13:57:00,82.8,64.5,30.20,ESE,113,10.0,13.0,54,0.00,,,0.00,604,Wunderground v.1.15,2013-01-10 18:57:00,
2013-01-10 14:07:00,81.8,64.1,30.21,East,85,8.0,11.0,55,0.00,,,0.00,174,Wunderground v.1.15,2013-01-10 19:07:00,
2013-01-10 14:12:00,82.2,63.9,30.21,SE,131,9.0,11.0,54,0.00,,,0.00,575,Wunderground v.1.15,2013-01-10 19:12:00,
2013-01-10 14:17:00,82.4,63.5,30.20,East,90,10.0,11.0,53,0.00,,,0.00,533,Wunderground v.1.15,2013-01-10 19:17:00,
2013-01-10 14:27:00,82.2,63.4,30.20,ESE,110,8.0,10.0,53,0.00,,,0.00,442,Wunderground v.1.15,2013-01-10 19:27:00,
2013-01-10 14:32:00,82.2,63.4,30.21,ESE,112,8.0,8.0,53,0.00,,,0.00,531,Wunderground v.1.15,2013-01-10 19:32:00,
2013-01-10 14:37:00,82.4,63.5,30.21,East,93,8.0,8.0,53,0.00,,,0.00,480,Wunderground v.1.15,2013-01-10 19:37:00,
2013-01-10 14:47:00,82.4,63.0,30.21,ESE,104,8.0,10.0,52,0.00,,,0.00,516,Wunderground v.1.15,2013-01-10 19:47:00,
2013-01-10 14:52:00,82.6,63.2,30.21,NE,49,9.0,9.0,52,0.00,,,0.00,591,Wunderground v.1.15,2013-01-10 19:52:00,
2013-01-10 15:02:00,82.2,63.9,30.22,SE,134,7.0,7.0,54,0.00,,,0.00,160,Wunderground v.1.15,2013-01-10 20:02:00,
2013-01-10 15:12:00,82.2,63.4,30.22,SE,127,7.0,8.0,53,0.00,,,0.00,202,Wunderground v.1.15,2013-01-10 20:12:00,
2013-01-10 15:17:00,81.8,63.5,30.21,ENE,76,6.0,8.0,54,0.00,,,0.00,206,Wunderground v.1.15,2013-01-10 20:17:00,
2013-01-10 15:22:00,82.0,63.2,30.21,ENE,73,7.0,7.0,53,0.00,,,0.00,468,Wunderground v.1.15,2013-01-10 20:22:00,
2013-01-10 15:27:00,82.4,63.0,30.21,East,93,7.0,7.0,52,0.00,,,0.00,144,Wunderground v.1.15,2013-01-10 20:27:00,
2013-01-10 15:37:00,81.8,63.5,30.21,ESE,109,6.0,7.0,54,0.00,,,0.00,107,Wunderground v.1.15,2013-01-10 20:37:00,
2013-01-10 15:47:00,81.8,63.5,30.21,East,80,5.0,5.0,54,0.00,,,0.00,361,Wunderground v.1.15,2013-01-10 20:47:00,
2013-01-10 15:52:00,82.2,63.9,30.21,ENE,71,4.0,4.0,54,0.00,,,0.00,329,Wunderground v.1.15,2013-01-10 20:52:00,
2013-01-10 16:02:00,82.8,63.9,30.21,SE,124,5.0,5.0,53,0.00,,,0.00,297,Wunderground v.1.15,2013-01-10 21:02:00,
2013-01-10 16:07:00,82.4,63.0,30.22,ESE,114,6.0,7.0,52,0.00,,,0.00,297,Wunderground v.1.15,2013-01-10 21:07:00,
2013-01-10 16:12:00,82.6,63.2,30.21,ESE,103,6.0,8.0,52,0.00,,,0.00,273,Wunderground v.1.15,2013-01-10 21:12:00,
2013-01-10 16:22:00,81.8,63.0,30.21,SE,140,7.0,8.0,53,0.00,,,0.00,239,Wunderground v.1.15,2013-01-10 21:22:00,
2013-01-10 16:27:00,81.6,62.8,30.21,ESE,109,7.0,8.0,53,0.00,,,0.00,67,Wunderground v.1.15,2013-01-10 21:27:00,
2013-01-10 16:37:00,81.2,63.5,30.21,ESE,109,6.0,10.0,55,0.00,,,0.00,88,Wunderground v.1.15,2013-01-10 21:37:00,
2013-01-10 16:42:00,81.1,63.4,30.21,ESE,119,7.0,7.0,55,0.00,,,0.00,46,Wunderground v.1.15,2013-01-10 21:42:00,
2013-01-10 16:47:00,80.9,63.7,30.21,ESE,110,6.0,7.0,56,0.00,,,0.00,62,Wunderground v.1.15,2013-01-10 21:47:00,
2013-01-10 16:52:00,80.7,64.1,30.21,ESE,103,5.0,6.0,57,0.00,,,0.00,44,Wunderground v.1.15,2013-01-10 21:52:00,
2013-01-10 17:07:00,80.3,64.2,30.21,East,83,4.0,5.0,58,0.00,,,0.00,46,Wunderground v.1.15,2013-01-10 22:07:00,
2013-01-10 17:12:00,80.3,64.7,30.21,ESE,107,3.0,3.0,59,0.00,,,0.00,40,Wunderground v.1.15,2013-01-10 22:12:00,
2013-01-10 17:17:00,80.1,64.5,30.21,East,90,4.0,4.0,59,0.00,,,0.00,28,Wunderground v.1.15,2013-01-10 22:17:00,
2013-01-10 17:27:00,79.8,64.7,30.21,ESE,104,4.0,4.0,60,0.00,,,0.00,12,Wunderground v.1.15,2013-01-10 22:27:00,
2013-01-10 17:32:00,79.6,64.5,30.21,East,97,2.0,2.0,60,0.00,,,0.00,11,Wunderground v.1.15,2013-01-10 22:32:00,
2013-01-10 17:42:00,79.4,65.2,30.21,East,93,2.0,2.0,62,0.00,,,0.00,7,Wunderground v.1.15,2013-01-10 22:42:00,
2013-01-10 17:47:00,79.2,65.1,30.21,ESE,107,2.0,3.0,62,0.00,,,0.00,7,Wunderground v.1.15,2013-01-10 22:47:00,
2013-01-10 17:52:00,78.8,64.7,30.21,ESE,113,2.0,5.0,62,0.00,,,0.00,0,Wunderground v.1.15,2013-01-10 22:52:00,
2013-01-10 17:57:00,78.6,64.9,30.22,ESE,113,3.0,5.0,63,0.00,,,0.00,0,Wunderground v.1.15,2013-01-10 22:57:00,
2013-01-10 18:07:00,78.3,64.7,30.22,East,90,3.0,3.0,63,0.00,,,0.00,0,Wunderground v.1.15,2013-01-10 23:07:00,
2013-01-10 18:12:00,77.9,64.7,30.22,ESE,113,2.0,3.0,64,0.00,,,0.00,0,Wunderground v.1.15,2013-01-10 23:12:00,
2013-01-10 18:17:00,77.7,64.5,30.22,ESE,113,3.0,3.0,64,0.00,,,0.00,0,Wunderground v.1.15,2013-01-10 23:17:00,
2013-01-10 18:27:00,77.4,64.7,30.22,ESE,106,3.0,3.0,65,0.00,,,0.00,0,Wunderground v.1.15,2013-01-10 23:27:00,
2013-01-10 18:42:00,76.7,64.5,30.22,East,89,3.0,3.0,66,0.00,,,0.00,0,Wunderground v.1.15,2013-01-10 23:42:00,
2013-01-10 18:52:00,76.5,64.7,30.22,ESE,103,3.0,8.0,67,0.00,,,0.00,0,Wunderground v.1.15,2013-01-10 23:52:00,
2013-01-10 19:17:00,76.3,64.5,30.22,East,96,5.0,5.0,67,0.00,,,0.00,0,Wunderground v.1.15,2013-01-11 00:17:00,
2013-01-10 19:22:00,76.3,64.5,30.22,East,93,4.0,6.0,67,0.00,,,0.00,0,Wunderground v.1.15,2013-01-11 00:22:00,
2013-01-10 19:27:00,76.3,64.5,30.22,ESE,110,4.0,6.0,67,0.00,,,0.00,0,Wunderground v.1.15,2013-01-11 00:27:00,
2013-01-10 19:37:00,76.1,64.8,30.23,ESE,107,3.0,5.0,68,0.00,,,0.00,0,Wunderground v.1.15,2013-01-11 00:37:00,
2013-01-10 19:42:00,76.1,64.8,30.23,ESE,103,3.0,3.0,68,0.00,,,0.00,0,Wunderground v.1.15,2013-01-11 00:42:00,
2013-01-10 19:52:00,76.0,65.1,30.23,ESE,109,4.0,6.0,69,0.00,,,0.00,0,Wunderground v.1.15,2013-01-11 00:52:00,
2013-01-10 19:57:00,76.0,65.5,30.24,East,97,5.0,6.0,70,0.00,,,0.00,0,Wunderground v.1.15,2013-01-11 00:57:00,
2013-01-10 20:02:00,75.8,65.3,30.24,ESE,119,6.0,7.0,70,0.00,,,0.00,0,Wunderground v.1.15,2013-01-11 01:02:00,
2013-01-10 20:07:00,75.8,65.7,30.23,East,97,5.0,7.0,71,0.00,,,0.00,0,Wunderground v.1.15,2013-01-11 01:07:00,
2013-01-10 20:17:00,75.4,65.3,30.24,East,95,5.0,5.0,71,0.00,,,0.00,0,Wunderground v.1.15,2013-01-11 01:17:00,
2013-01-10 20:22:00,75.3,65.6,30.24,SE,127,4.0,4.0,72,0.00,,,0.00,0,Wunderground v.1.15,2013-01-11 01:22:00,
2013-01-10 20:32:00,74.9,65.7,30.24,SE,128,4.0,4.0,73,0.00,,,0.00,0,Wunderground v.1.15,2013-01-11 01:32:00,
2013-01-10 20:42:00,74.6,66.1,30.24,SE,140,4.0,4.0,75,0.00,,,0.00,0,Wunderground v.1.15,2013-01-11 01:42:00,
2013-01-10 20:47:00,74.4,66.0,30.25,ESE,121,3.0,4.0,75,0.00,,,0.00,0,Wunderground v.1.15,2013-01-11 01:47:00,
2013-01-10 20:52:00,74.4,66.3,30.25,ESE,103,3.0,3.0,76,0.00,,,0.00,0,Wunderground v.1.15,2013-01-11 01:52:00,
2013-01-10 21:02:00,74.0,66.0,30.25,ESE,107,4.0,4.0,76,0.00,,,0.00,0,Wunderground v.1.15,2013-01-11 02:02:00,
2013-01-10 21:07:00,73.9,65.9,30.25,East,93,5.0,5.0,76,0.00,,,0.00,0,Wunderground v.1.15,2013-01-11 02:07:00,
2013-01-10 21:17:00,73.7,66.0,30.25,ESE,110,5.0,7.0,77,0.00,,,0.00,0,Wunderground v.1.15,2013-01-11 02:17:00,
2013-01-10 21:22:00,73.7,66.0,30.25,ESE,117,4.0,4.0,77,0.00,,,0.00,0,Wunderground v.1.15,2013-01-11 02:22:00,
2013-01-10 21:32:00,73.5,65.8,30.25,ESE,117,3.0,5.0,77,0.00,,,0.00,0,Wunderground v.1.15,2013-01-11 02:32:00,
2013-01-10 21:42:00,73.3,65.7,30.25,East,100,5.0,6.0,77,0.00,,,0.00,0,Wunderground v.1.15,2013-01-11 02:42:00,
2013-01-10 21:52:00,73.2,65.9,30.26,ESE,107,4.0,5.0,78,0.00,,,0.00,0,Wunderground v.1.15,2013-01-11 02:52:00,
2013-01-10 21:57:00,73.0,65.4,30.25,ESE,103,5.0,5.0,77,0.00,,,0.00,0,Wunderground v.1.15,2013-01-11 02:57:00,
2013-01-10 22:02:00,72.8,65.2,30.25,ESE,106,6.0,6.0,77,0.00,,,0.00,0,Wunderground v.1.15,2013-01-11 03:02:00,
2013-01-10 22:12:00,72.7,65.1,30.25,ESE,114,7.0,7.0,77,0.00,,,0.00,0,Wunderground v.1.15,2013-01-11 03:12:00,
2013-01-10 22:22:00,72.5,64.5,30.26,ESE,114,6.0,6.0,76,0.00,,,0.00,0,Wunderground v.1.15,2013-01-11 03:22:00,
2013-01-10 22:32:00,72.3,64.7,30.26,East,99,6.0,6.0,77,0.00,,,0.00,0,Wunderground v.1.15,2013-01-11 03:32:00,
2013-01-10 22:37:00,72.1,64.5,30.26,East,89,6.0,6.0,77,0.00,,,0.00,0,Wunderground v.1.15,2013-01-11 03:37:00,
2013-01-10 22:47:00,72.0,64.4,30.27,SE,130,5.0,5.0,77,0.00,,,0.00,0,Wunderground v.1.15,2013-01-11 03:47:00,
2013-01-10 22:57:00,71.8,64.2,30.27,East,100,5.0,6.0,77,0.00,,,0.00,0,Wunderground v.1.15,2013-01-11 03:57:00,
2013-01-10 23:07:00,71.6,64.0,30.27,ESE,114,5.0,7.0,77,0.00,,,0.00,0,Wunderground v.1.15,2013-01-11 04:07:00,
2013-01-10 23:17:00,71.5,63.9,30.27,ESE,110,6.0,7.0,77,0.00,,,0.00,0,Wunderground v.1.15,2013-01-11 04:17:00,
2013-01-10 23:27:00,71.1,63.5,30.27,East,82,5.0,8.0,77,0.00,,,0.00,0,Wunderground v.1.15,2013-01-11 04:27:00,
2013-01-10 23:32:00,71.1,63.9,30.27,ESE,117,5.0,5.0,78,0.00,,,0.00,0,Wunderground v.1.15,2013-01-11 04:32:00,
2013-01-10 23:42:00,70.8,63.6,30.27,ESE,123,5.0,6.0,78,0.00,,,0.00,0,Wunderground v.1.15,2013-01-11 04:42:00,
2013-01-10 23:52:00,70.6,63.8,30.27,ESE,107,5.0,5.0,79,0.00,,,0.00,0,Wunderground v.1.15,2013-01-11 04:52:00,